Vertical_Velocity
-3 0 -2 -0 -1 -0 -1 0 -1 -2 -0 0 -1 0 -1 -2 -3 -2 -2 -0 -1 -1 1 -0 5 2 3 1 2 2 -2 1 0
-0 -1 -2 0 -1 -1 -1 0 0 0 -2 -4 0 -2 -1 0 -1 -2 -1 -1 1 0 -1 0 1 2 2 3 2 1 0 1 -1
-0 0 1 1 0 -1 0 1 1 1 -1 -0 0 1 0 -0 0 0 1 1 1 1 1 -2 0 1 3 3 -0 1 0 -0 -1
-1 -1 -2 -3 -1 -1 -2 0 -2 -1 -2 -3 -2 -0 1 0 -1 -1 0 1 0 0 -0 1 1 -1 -0 -1 1 2 1 2 -0
-0 1 0 -0 1 -2 -2 -3 -0 -1 -1 -1 -1 -2 -1 -1 -1 -1 0 0 1 0 -0 0 -2 0 -2 0 1 0 -2 -2 1
1 -1 -2 -3 -2 -2 -1 0 -0 -2 -1 -2 -1 -1 -0 -2 -2 -3 -2 -1 -0 -0 1 1 1 1 1 -2 0 1 -1 0 2
2 0 -1 -1 -1 -3 0 -3 1 0 -2 -2 -3 -0 -2 -2 -1 -2 -2 -1 -0 -0 -0 0 -0 2 -0 0 2 -1 -0 -0 -0
-0 -0 -1 -1 -1 -3 0 -5 -4 -3 -1 -1 -1 0 1 -0 -1 -2 -2 -0 1 0 1 -1 0 1 -2 -0 -2 -4 2 2 1
1 -2 0 -1 1 -1 -1 -1 -1 -0 -1 -3 -2 -3 -2 -3 -4 -3 -1 -1 -2 -2 -1 -1 -1 -2 -1 -1 -2 1 -1 -1 -0
2 -1 -2 -2 0 -1 -2 -1 -1 0 -1 -3 -2 -1 -1 -2 -3 -3 -2 -2 -2 -2 -3 0 0 -3 0 0 -4 3 0 1 -2
-1 0 -1 -2 -1 -2 -1 1 1 -1 -1 -3 -1 -0 -0 -1 0 -1 0 1 -1 0 -1 0 -2 1 -1 -1 -1 -1 1 -1 -0
-2 -0 -2 -0 -1 -2 -0 -1 1 0 0 2 1 -1 -0 -1 1 1 2 1 -0 -0 0 0 0 1 -1 1 -0 -1 2 1 1
1 -1 -1 -0 -2 1 1 1 1 0 -0 -1 0 -1 -0 0 1 1 1 -0 1 0 0 0 0 2 1 2 -2 2 -1 -3 -2
-1 -2 -0 -2 1 1 -1 1 1 0 -2 -2 0 1 -1 -0 1 1 0 1 -0 -1 0 1 3 3 1 2 -1 2 2 -1 -2
-0 -2 -0 -2 0 1 -0 -1 2 1 -1 0 1 -0 -1 1 2 3 1 1 3 -0 2 -1 -1 0 -1 0 -1 1 4 -2 -0
0 -1 0 -1 0 -1 -3 -0 0 1 -0 -0 -3 1 -1 -0 -0 -1 0 -3 0 -3 -2 0 -0 -0 -0 -0 -1 0 3 -3 1
-2 0 -1 -1 1 0 -1 0 1 2 2 2 3 5 -1 -1 -3 -3 -2 -2 -0 -6 -5 -4 -4 -3 -2 -2 -3 -1 1 -0 1
-1 -0 -1 -1 1 1 0 -0 -0 -0 0 -0 -2 -2 4 1 18 5 -2 -1 -1 -2 -4 -6 -2 -2 -1 -0 -0 -2 -3 -2 -2
-1 -0 0 1 0 0 -0 0 -0 -1 -1 -2 -3 -3 -2 -1 6 22 12 0 3 3 4 2 1 -1 -3 -2 -1 1 -1 -3 -4
-1 1 0 0 0 -1 -1 -1 -2 -3 -2 -0 1 -1 -2 -9 -8 5 15 13 -4 -4 -4 -1 1 3 -1 -4 -4 -4 -2 -0 1
Height
5834 5834 5835 5834 5834 5833 5833 5833 5833 5832 5831 5830 5830 5829 5829 5829 5828 5827 5826 5826 5825 5824 5824 5825 5824 5824 5824 5824 5825 5825 5825 5826 5826
5831 5831 5831 5831 5831 5831 5830 5830 5829 5829 5828 5826 5825 5825 5824 5824 5823 5822 5821 5820 5819 5819 5818 5818 5818 5818 5818 5818 5818 5818 5819 5818 5819
5828 5828 5829 5828 5827 5827 5826 5825 5825 5824 5823 5822 5821 5820 5819 5818 5818 5816 5816 5815 5814 5813 5812 5812 5811 5811 5811 5811 5811 5811 5811 5811 5811
5826 5825 5825 5824 5824 5823 5822 5821 5821 5820 5819 5817 5816 5814 5814 5812 5812 5811 5810 5809 5808 5807 5805 5805 5805 5804 5803 5803 5804 5804 5803 5803 5802
5823 5823 5823 5821 5820 5820 5818 5818 5817 5815 5815 5812 5811 5809 5808 5807 5805 5804 5803 5801 5800 5800 5799 5798 5797 5796 5795 5795 5794 5794 5794 5793 5793
5820 5819 5818 5817 5816 5815 5814 5813 5812 5810 5809 5808 5805 5804 5802 5800 5798 5797 5795 5794 5792 5792 5791 5789 5789 5788 5787 5786 5786 5785 5783 5783 5783
5815 5814 5813 5812 5811 5809 5808 5807 5805 5804 5803 5801 5800 5798 5796 5793 5791 5789 5787 5785 5784 5783 5782 5781 5781 5780 5779 5778 5777 5776 5775 5775 5774
5810 5809 5809 5808 5806 5803 5802 5800 5798 5797 5796 5796 5794 5792 5790 5787 5784 5781 5779 5778 5776 5775 5774 5773 5773 5772 5771 5770 5769 5768 5769 5768 5767
5805 5805 5804 5803 5801 5798 5797 5795 5792 5791 5791 5789 5787 5786 5783 5780 5777 5774 5772 5771 5769 5767 5766 5765 5764 5763 5762 5761 5761 5760 5759 5758 5757
5800 5800 5799 5797 5795 5793 5792 5790 5788 5786 5785 5783 5781 5779 5776 5773 5770 5767 5766 5764 5761 5760 5759 5757 5756 5753 5752 5751 5749 5749 5748 5747 5747
5794 5795 5794 5792 5790 5788 5788 5785 5783 5782 5779 5776 5775 5772 5770 5766 5763 5761 5758 5757 5755 5753 5751 5750 5748 5746 5744 5742 5740 5739 5737 5736 5735
5789 5788 5787 5786 5784 5783 5782 5779 5777 5775 5772 5768 5766 5763 5760 5757 5755 5753 5750 5748 5746 5745 5743 5741 5738 5737 5734 5733 5731 5728 5726 5724 5723
5784 5782 5781 5779 5779 5778 5775 5773 5771 5769 5765 5760 5758 5754 5751 5748 5746 5744 5742 5739 5737 5735 5732 5730 5727 5725 5723 5721 5718 5717 5714 5711 5709
5777 5776 5775 5773 5771 5771 5768 5766 5764 5760 5756 5752 5749 5745 5742 5739 5737 5735 5732 5730 5727 5724 5721 5718 5715 5712 5709 5707 5703 5701 5699 5695 5693
5770 5769 5767 5766 5765 5764 5760 5758 5756 5753 5748 5743 5740 5738 5735 5732 5729 5727 5723 5719 5716 5712 5708 5704 5701 5698 5694 5691 5687 5685 5682 5679 5677
5763 5762 5761 5759 5758 5756 5753 5749 5746 5744 5740 5737 5732 5730 5727 5724 5721 5716 5712 5707 5703 5698 5693 5690 5686 5682 5677 5673 5670 5666 5663 5659 5657
5756 5755 5754 5752 5750 5748 5744 5740 5737 5733 5730 5728 5726 5723 5719 5713 5709 5705 5701 5695 5690 5684 5678 5674 5669 5664 5660 5656 5651 5647 5643 5640 5637
5749 5748 5746 5743 5741 5738 5734 5731 5727 5723 5719 5718 5715 5712 5711 5708 5704 5696 5688 5682 5676 5670 5664 5658 5652 5646 5642 5638 5634 5630 5625 5621 5616
5742 5740 5738 5734 5732 5728 5724 5720 5716 5713 5709 5705 5701 5697 5692 5690 5690 5688 5680 5673 5666 5658 5650 5644 5637 5631 5626 5621 5616 5611 5605 5598 5593
5733 5731 5728 5725 5722 5718 5714 5710 5705 5702 5698 5693 5689 5683 5676 5670 5666 5665 5664 5657 5648 5642 5635 5628 5621 5614 5608 5602 5596 5589 5582 5574 5568